Угют

Киргизия     41°24′36″N   74°50′36″E
темп.,
°C
ветер,
м/с
пор.,
м/с
влажн.,
%
обл.,
%
осадки,
мм/ч
давл.,
гПа
погр.,
м
16 июня, ср
ср1600:00+10ссз2259100 0.3 101326
03:00+9зюз1165100 0.0 101315
06:00+9с1165100 0.0 101423
09:00+11юв2158100 0.0 1014748
12:00+14ююв2247100 0.0 10121194
15:00+15ююв3235100 0.1 10111399
18:00+15юв1135100 0.2 10111281
21:00+11всв2357100 0.1 1014150
17 июня, чт
чт1700:00+11юв1158100 0.1 101510
03:00+9св1162100 0.0 101410
06:00+8ссв116699 0.0 101410
09:00+12ююв21508 0.0 1014655
12:00+16ю33348 0.1 10111965
15:00+19юз352480 0.1 10083405
18:00+19зюз342220 0.1 10072983
21:00+15зсз33350 0.1 101023
18 июня, пт
пт1800:00+12сз22441 0.1 101214
03:00+10ссз11522 0.0 101211
06:00+9ссз00575 0.0 101310
09:00+15ююв21395 0.0 1013786
12:00+19ююз452680 0.1 10102999
15:00+20зсз572725 0.4 10092601
18:00+20з782553 0.4 10092744
21:00+15ссз21390 0.1 101115
19 июня, сб
сб1900:00+12св00490 0.1 101310
03:00+10ссв01564 0.0 101310
06:00+10ссв01615 0.0 101410
09:00+15ююв21450 0.0 1013572
12:00+20юз47249 0.0 10103002
15:00+22зюз810184 0.0 10073373
18:00+21зюз8111730 0.0 10063073
21:00+15зсз33307 0.0 100831
20 июня, вс
вс2000:00+13сз114553 0.0 100913
03:00+11з11512 0.0 100911
06:00+10сз11544 0.0 101012
09:00+16юз49384 0.0 10091626
12:00+18зюз516329 0.0 10062795
15:00+20зюз9182737 0.0 10043374
18:00+18зюз713230 0.0 10062459
21:00+13зюз47313 0.0 1010202